| time (UTC) | temp F | wind direction | speed MPH | gust MPH | rain 1hr in | rain 24hr in | rain mn in | humidity % | barometer mb |
| 20260906003204 | 81 | 180 | 0.0 | 0.0 | 0.00 | 0.05 | 0.05 | 87 | 1010.3 |
| 20260906001704 | 82 | 180 | 0.0 | 0.0 | 0.00 | 0.05 | 0.05 | 86 | 1010.3 |
| 20260906000204 | 83 | 180 | 0.0 | 0.0 | 0.00 | 0.05 | 0.05 | 86 | 1010.2 |
| 20260905233204 | 83 | 180 | 0.0 | 5.0 | 0.00 | 0.05 | 0.05 | 86 | 1010.2 |
| 20260905231704 | 83 | 180 | 0.0 | 2.0 | 0.00 | 0.05 | 0.05 | 86 | 1010.3 |
| 20260905230204 | 83 | 180 | 0.0 | 1.0 | 0.00 | 0.05 | 0.05 | 86 | 1010.1 |
| 20260905224704 | 84 | 180 | 0.0 | 2.0 | 0.00 | 0.05 | 0.05 | 86 | 1010.1 |
| 20260905223204 | 85 | 180 | 0.0 | 2.0 | 0.00 | 0.05 | 0.05 | 84 | 1010.2 |
| 20260905221704 | 85 | 180 | 0.0 | 3.0 | 0.00 | 0.05 | 0.05 | 85 | 1010.4 |
| 20260905220204 | 86 | 180 | 1.0 | 5.0 | 0.00 | 0.05 | 0.05 | 82 | 1010.5 |
| 20260905214704 | 86 | 158 | 1.0 | 5.0 | 0.00 | 0.05 | 0.05 | 82 | 1010.6 |
| 20260905213204 | 86 | 158 | 2.0 | 5.0 | 0.00 | 0.05 | 0.05 | 83 | 1010.7 |
| 20260905211704 | 86 | 180 | 2.0 | 5.0 | 0.00 | 0.05 | 0.05 | 82 | 1011.0 |
| 20260905204704 | 80 | 180 | 0.0 | 1.0 | 0.00 | 0.05 | 0.05 | 88 | 1010.7 |
| 20260905203204 | 80 | 180 | 1.0 | 6.0 | 0.00 | 0.05 | 0.05 | 88 | 1010.9 |
| 20260905201705 | 81 | 180 | 3.0 | 6.0 | 0.00 | 0.05 | 0.05 | 87 | 1011.0 |
| 20260905200204 | 82 | 112 | 3.0 | 6.0 | 0.00 | 0.05 | 0.05 | 86 | 1011.3 |
| 20260905194704 | 83 | 68 | 2.0 | 5.0 | 0.00 | 0.05 | 0.05 | 86 | 1011.6 |
| 20260905193204 | 82 | 270 | 2.0 | 2.0 | 0.00 | 0.05 | 0.05 | 87 | 1011.7 |
| 20260905191705 | 83 | 270 | 2.0 | 2.0 | 0.00 | 0.05 | 0.05 | 84 | 1011.7 |
| 20260905190204 | 86 | 292 | 1.0 | 3.0 | 0.00 | 0.05 | 0.05 | 81 | 1011.8 |
| 20260905184704 | 85 | 270 | 2.0 | 5.0 | 0.00 | 0.05 | 0.05 | 81 | 1012.3 |
| 20260905183204 | 88 | 63 | 4.0 | 7.0 | 0.00 | 0.05 | 0.05 | 77 | 1012.2 |
| 20260905181704 | 91 | 180 | 5.0 | 7.0 | 0.00 | 0.05 | 0.05 | 74 | 1012.1 |
| 20260905180206 | 88 | 225 | 2.0 | 2.0 | 0.00 | 0.05 | 0.05 | 79 | 1012.5 |
| 20260905174704 | 85 | 225 | 2.0 | 3.0 | 0.00 | 0.05 | 0.05 | 81 | 1012.5 |
| 20260905173204 | 86 | 292 | 2.0 | 3.0 | 0.00 | 0.05 | 0.05 | 80 | 1012.6 |
| 20260905171704 | 87 | 292 | 0.0 | 3.0 | 0.00 | 0.05 | 0.05 | 80 | 1012.7 |
| 20260905170204 | 89 | 292 | 3.0 | 5.0 | 0.00 | 0.05 | 0.05 | 76 | 1012.9 |
| 20260905164704 | 89 | 90 | 2.0 | 6.0 | 0.00 | 0.05 | 0.05 | 75 | 1013.0 |
| 20260905163204 | 89 | 81 | 3.0 | 6.0 | 0.00 | 0.05 | 0.05 | 79 | 1013.0 |
| 20260905161704 | 88 | 248 | 2.0 | 3.0 | 0.00 | 0.05 | 0.05 | 78 | 1013.1 |
| 20260905154704 | 86 | 82 | 3.0 | 6.0 | 0.05 | 0.05 | 0.05 | 81 | 1013.0 |
| 20260905150204 | 81 | 68 | 1.0 | 2.0 | 0.05 | 0.05 | 0.05 | 89 | 1013.1 |
| 20260905143204 | 85 | 68 | 2.0 | 3.0 | 0.00 | 0.08 | 0.00 | 83 | 1012.8 |
| 20260905140205 | 86 | 68 | 3.0 | 5.0 | 0.00 | 0.10 | 0.00 | 82 | 1012.9 |
| 20260905134704 | 86 | 68 | 1.0 | 2.0 | 0.00 | 0.10 | 0.00 | 84 | 1012.8 |
| 20260905131704 | 82 | 68 | 2.0 | 3.0 | 0.00 | 0.10 | 0.00 | 86 | 1012.8 |
| 20260905130205 | 80 | 68 | 1.0 | 2.0 | 0.00 | 0.10 | 0.00 | 89 | 1012.7 |
| 20260905124704 | 78 | 68 | 0.0 | 1.0 | 0.00 | 0.10 | 0.00 | 90 | 1012.6 |
| 20260905123204 | 79 | 68 | 0.0 | 1.0 | 0.00 | 0.10 | 0.00 | 89 | 1012.5 |
| 20260905121705 | 76 | 68 | 0.0 | 0.0 | 0.00 | 0.10 | 0.00 | 92 | 1012.5 |
| 20260905120204 | 75 | 68 | 0.0 | 0.0 | 0.00 | 0.10 | 0.00 | 93 | 1012.3 |
| 20260905114705 | 75 | 68 | 0.0 | 0.0 | 0.00 | 0.10 | 0.00 | 93 | 1012.3 |
| 20260905113204 | 74 | 68 | 0.0 | 0.0 | 0.00 | 0.10 | 0.00 | 93 | 1012.2 |
| 20260905110204 | 74 | 68 | 0.0 | 2.0 | 0.00 | 0.10 | 0.00 | 93 | 1012.0 |
| 20260905104704 | 74 | 68 | 0.0 | 1.0 | 0.00 | 0.10 | 0.00 | 93 | 1011.9 |
| 20260905103204 | 74 | 68 | 1.0 | 1.0 | 0.00 | 0.10 | 0.00 | 93 | 1012.0 |
| 20260905100204 | 74 | 68 | 0.0 | 1.0 | 0.00 | 0.10 | 0.00 | 93 | 1011.8 |
| 20260905094705 | 74 | 68 | 0.0 | 1.0 | 0.00 | 0.10 | 0.00 | 93 | 1012.0 |
| 20260905093204 | 74 | 68 | 0.0 | 2.0 | 0.00 | 0.10 | 0.00 | 93 | 1011.7 |
| 20260905091704 | 74 | 68 | 0.0 | 0.0 | 0.00 | 0.10 | 0.00 | 93 | 1011.8 |
| 20260905090204 | 74 | 68 | 0.0 | 0.0 | 0.00 | 0.10 | 0.00 | 93 | 1011.8 |
| 20260905084704 | 74 | 68 | 0.0 | 0.0 | 0.00 | 0.10 | 0.00 | 93 | 1011.8 |
| 20260905083204 | 74 | 68 | 0.0 | 0.0 | 0.00 | 0.10 | 0.00 | 92 | 1011.6 |
| 20260905081704 | 74 | 68 | 0.0 | 0.0 | 0.00 | 0.10 | 0.00 | 92 | 1011.5 |
| 20260905074705 | 74 | 68 | 0.0 | 1.0 | 0.00 | 0.10 | 0.00 | 92 | 1011.8 |
| 20260905073204 | 74 | 68 | 1.0 | 1.0 | 0.00 | 0.10 | 0.00 | 92 | 1011.6 |
| 20260905071704 | 74 | 68 | 1.0 | 1.0 | 0.00 | 0.10 | 0.00 | 92 | 1011.8 |
| 20260905070205 | 74 | 68 | 0.0 | 0.0 | 0.00 | 0.10 | 0.00 | 92 | 1011.5 |
| 20260905064705 | 74 | 68 | 0.0 | 0.0 | 0.00 | 0.10 | 0.00 | 92 | 1011.4 |
| 20260905063204 | 74 | 68 | 0.0 | 0.0 | 0.00 | 0.10 | 0.00 | 92 | 1011.4 |
| 20260905061704 | 74 | 68 | 0.0 | 0.0 | 0.00 | 0.10 | 0.00 | 92 | 1011.4 |
| 20260905060204 | 75 | 68 | 0.0 | 0.0 | 0.00 | 0.10 | 0.00 | 92 | 1011.6 |
| 20260905054704 | 75 | 68 | 0.0 | 0.0 | 0.00 | 0.10 | 0.00 | 92 | 1011.5 |
| 20260905053204 | 75 | 68 | 0.0 | 1.0 | 0.00 | 0.14 | 0.00 | 92 | 1011.7 |
| 20260905051704 | 75 | 68 | 0.0 | 1.0 | 0.00 | 0.20 | 0.00 | 92 | 1011.9 |
| 20260905050204 | 75 | 68 | 0.0 | 1.0 | 0.00 | 0.24 | 0.00 | 92 | 1012.3 |
| 20260905044704 | 75 | 68 | 0.0 | 0.0 | 0.00 | 0.25 | 0.24 | 92 | 1012.2 |
| 20260905043204 | 75 | 68 | 0.0 | 0.0 | 0.00 | 0.25 | 0.24 | 92 | 1012.4 |
| 20260905041705 | 75 | 68 | 0.0 | 0.0 | 0.00 | 0.25 | 0.24 | 92 | 1012.5 |
| 20260905040204 | 75 | 68 | 0.0 | 2.0 | 0.00 | 0.25 | 0.24 | 92 | 1012.8 |
| 20260905033204 | 76 | 68 | 0.0 | 1.0 | 0.00 | 0.25 | 0.24 | 91 | 1012.9 |
| 20260905030205 | 76 | 68 | 0.0 | 3.0 | 0.00 | 0.25 | 0.24 | 91 | 1013.0 |
| 20260905024704 | 76 | 68 | 1.0 | 5.0 | 0.00 | 0.25 | 0.24 | 91 | 1012.9 |
| 20260905023204 | 76 | 90 | 2.0 | 2.0 | 0.00 | 0.25 | 0.24 | 91 | 1012.9 |
| 20260905020204 | 76 | 22 | 0.0 | 2.0 | 0.00 | 0.25 | 0.24 | 91 | 1012.7 |
| 20260905014704 | 77 | 0 | 0.0 | 2.0 | 0.00 | 0.25 | 0.24 | 91 | 1012.5 |
| 20260905013204 | 77 | 45 | 1.0 | 2.0 | 0.00 | 0.25 | 0.24 | 90 | 1012.5 |
| 20260905011704 | 77 | 65 | 1.0 | 3.0 | 0.00 | 0.25 | 0.24 | 90 | 1012.6 |
| 20260905010204 | 78 | 338 | 0.0 | 0.0 | 0.00 | 0.25 | 0.24 | 89 | 1012.4 |
| 20260905004704 | 78 | 338 | 0.0 | 1.0 | 0.00 | 0.25 | 0.24 | 89 | 1012.3 |